Location: Bügenstegen
(49.2392°N, 9.9323°E)
Time: 14:30:27
(UTC+00:00)

Daily predictions for brighter satellites

Satellite Brightness Start Highest point End
(mag) Time Altitude Azimuth Time Altitude Azimuth Time Altitude Azimuth
S3M 4.4 19:56:49 10° N 20:03:03 50° ENE 20:09:09 10° SSE
Spot 2 Rocket 3.9 20:01:03 10° SE 20:05:55 51° ENE 20:10:52 10° N
Cosmos 1441 Rocket 3.0 20:09:46 10° N 20:13:23 77° ENE 20:17:00 10° SSE
Okean-O 3.5 20:09:47 10° S 20:14:02 47° W 20:18:19 10° NNW
Cosmos 2360 Rocket 3.1 20:09:33 10° NNW 20:14:53 39° NE 20:20:09 10° ESE
ATLAS 2AS CENTAUR R/B 3.3 20:09:51 10° NW 20:16:35 50° NE 20:23:03 10° ESE
Cosmos 2266 Rocket 4.3 20:12:10 10° SSE 20:18:16 54° E 20:24:29 10° NNE
Cosmos 1733 Rocket 4.3 20:14:39 10° N 20:18:28 28° ENE 20:22:16 10° SE
Cosmos 1300 3.8 20:16:47 10° NNE 20:19:54 27° ENE 20:22:59 10° SE
USA 245 3.2 20:19:11 10° SSE 20:22:34 87° ENE 20:26:56 10° NNW
Cosmos 2333 Rocket 3.1 20:17:51 10° NNW 20:23:18 41° NE 20:28:44 10° ESE
Cosmos 1674 3.6 20:20:10 10° SSW 20:23:30 45° WNW 20:26:51 10° N
SL-16 R/B 2.3 20:18:25 10° NNW 20:24:08 78° ENE 20:29:48 10° SSE
Cosmos 1515 Rocket 4.2 20:20:35 10° SSW 20:24:49 56° WNW 20:29:07 10° N
In-Cosmos 22 4.3 20:19:34 10° S 20:25:08 64° E 20:30:36 10° NNE
Cosmos 1908 3.2 20:22:14 10° NNW 20:25:50 72° W 20:29:25 10° S
Cosmos 1470 3.5 20:22:24 10° NNW 20:26:00 49° W 20:29:33 10° S
Cosmos 468 Rocket 4.4 20:22:14 10° NNW 20:27:24 61° WSW 20:32:29 10° S
Atlas Centaur 2 4.3 20:23:43 10° SW 20:29:11 20° S 20:34:35 10° SE
Cosmos 2082 Rocket 3.0 20:23:48 10° SW 20:29:25 58° WNW 20:35:04 10° NNE
Ariane Rocket 3.0 20:25:25 10° SSE 20:30:30 77° ENE 20:35:37 10° NNW
Cosmos 2228 Rocket 3.9 20:28:24 10° SSE 20:32:31 35° E 20:36:41 10° NNE
SL-14 R/B 4.1 20:29:37 10° SSE 20:33:01 32° E 20:36:25 10° NNE
RESURS DK-1 2.5 20:31:39 10° NNW 20:35:43 65° ENE 20:39:23 12° SE
Okean O Rocket 4.2 20:33:41 10° SW 20:36:35 17° W 20:39:29 10° NW
Tiangong 0.2 20:37:06 10° SW 20:38:25 12° SSW 20:39:44 10° S
Cosmos 1869 Rocket 3.8 20:36:16 10° NNW 20:40:42 74° W 20:45:08 10° S
Cosmos 1850 Rocket 4.5 20:36:54 10° S 20:41:47 41° ESE 20:46:39 10° NE
Cosmos 1346 Rocket 3.3 20:39:36 10° N 20:43:20 44° ENE 20:46:26 14° SE
Terra 2.1 20:40:06 10° S 20:44:47 67° WSW 20:49:30 10° NNW
SPOT 3 Rocket 3.6 20:40:48 10° SSE 20:45:57 87° WSW 20:51:10 10° NNW
USA 281 4.0 20:42:27 10° ESE 20:48:32 42° NE 20:54:38 10° NNW
Timation 1 Rocket 4.4 20:44:27 10° SSW 20:50:17 59° ESE 20:56:08 10° NE
EXPRESS MD2 1.9 20:50:48 10° WSW 20:53:28 66° SSE 20:55:37 10° E
Meteor 1-22 Rocket 4.5 20:49:02 10° NNW 20:54:37 73° W 21:00:26 10° S
Cosmos 2315 Rocket 4.1 20:49:53 10° N 20:56:18 81° E 21:02:15 12° SSE
Cosmos 1758 3.2 20:54:01 10° N 20:57:56 82° E 21:01:09 15° SSE
Cosmos 1741 Rocket 4.2 20:55:46 10° S 21:00:54 56° ESE 21:06:06 10° NNE
Landsat 4 4.3 21:00:47 11° S 21:03:55 45° W 21:07:14 10° NNW
Cosmos 968 Rocket 3.9 20:59:28 11° S 21:04:04 44° ESE 21:08:59 10° NE
Cosmos 2322 Rocket 2.3 21:02:17 10° NNW 21:07:59 79° WSW 21:12:36 16° SSE
Cosmos 1814 Rocket 4.3 21:02:56 10° NNW 21:08:11 58° ENE 21:12:20 16° SE
Cosmos 1356 Rocket 3.4 21:06:07 12° S 21:09:59 73° E 21:14:11 10° NNE
SeaSat 1 3.9 21:08:10 10° S 21:12:24 29° WSW 21:16:40 10° NW
Cosmos 1862 Rocket 3.6 21:11:25 14° S 21:15:03 67° E 21:19:28 10° NNE
Meteor 1-21 4.3 21:13:03 11° S 21:18:38 75° E 21:24:28 10° NNE
MOS 1 Rocket 4.5 21:14:33 10° S 21:19:42 45° W 21:24:49 10° NNW
Okean 2 4.1 21:19:14 20° SE 21:21:25 36° E 21:25:07 10° NNE
USA 234 3.4 21:15:46 10° NE 21:22:20 80° NNW 21:28:52 10° WSW
BREEZE-M DEB (TANK) 4.3 21:01:24 10° WSW 21:23:03 85° SSE 21:27:54 10° E
Cosmos 1400 Rocket 4.0 21:23:14 10° SW 21:26:54 40° WNW 21:30:34 10° N
Cosmos 1455 2.8 21:24:31 10° N 21:27:49 38° ENE 21:29:35 22° SE
COSMOS 2428 3.8 21:23:33 10° NNW 21:28:50 37° NE 21:33:46 12° ESE
SL-4 R/B 2.5 21:25:01 10° W 21:28:53 60° N 21:33:01 10° E
Meteor 2-10 Rocket 4.4 21:26:06 10° NNW 21:31:29 47° W 21:36:16 12° SSW
Landsat 5 3.7 21:30:13 10° N 21:34:10 67° WNW 21:38:06 11° SSW
Cosmos 2219 Rocket 2.3 21:29:41 10° NNW 21:35:23 74° ENE 21:39:27 20° SE
Cosmos 1707 Rocket 3.9 21:31:38 11° SSW 21:35:53 64° WNW 21:40:19 10° N
ATLAS CENTAUR R/B 0.8 21:35:39 10° SW 21:39:08 83° SE 21:42:46 10° NE
ARIANE 5 R/B 2.7 21:39:26 23° SSE 21:42:03 64° ENE 21:46:21 10° N
Cosmos 1315 Rocket 2.9 21:39:54 24° S 21:42:07 59° E 21:46:04 10° NNE
Kosmos-1783 4.5 21:38:57 10° NW 21:42:29 73° NE 21:48:19 15° SE
SJ 16-02 1.2 21:39:28 18° S 21:42:35 70° ESE 21:46:54 10° NNE
Meteor 1-4 Rocket 1.9 21:41:42 29° S 21:43:03 84° ESE 21:46:04 10° NNE
SL-27 R/B 2.4 21:41:51 17° SW 21:43:48 56° WNW 21:46:33 10° NNE
Okean 3 3.5 21:41:42 17° SSW 21:44:51 75° W 21:49:02 10° N
Cosmos 1953 2.2 21:41:43 10° N 21:45:34 74° E 21:47:31 27° SSE
Aureole 3 3.8 21:49:38 17° SSW 21:52:34 63° WNW 21:57:19 10° N
Cosmos 1733 Rocket 4.4 21:52:15 10° NNW 21:56:14 34° W 21:59:30 14° SSW
Nadezhda 1 Rocket 4.2 21:51:11 10° N 21:57:29 63° ENE 22:01:33 22° SSE
Cosmos 2360 Rocket 2.9 21:53:36 10° NW 21:58:56 43° WSW 22:02:32 19° S
H-2A R/B 2.8 21:59:14 25° SE 22:01:32 58° ENE 22:05:45 10° N
GP-B 3.0 21:57:39 10° N 22:02:05 77° E 22:04:27 27° S
Cosmos 839 Rocket 4.2 21:55:52 10° NW 22:02:47 66° WSW 22:06:44 23° SSE
ATLAS 2AS CENTAUR R/B 3.1 22:01:01 10° NW 22:07:31 49° WSW 22:11:32 22° S
SL-16 R/B 4.1 22:03:40 10° NW 22:07:34 19° W 22:11:26 10° SW
Cosmos 2333 Rocket 3.0 22:02:15 10° NW 22:07:36 41° WSW 22:11:07 20° SSW
Cosmos 1908 Rocket 3.6 22:04:29 10° NNW 22:08:50 72° W 22:11:05 27° S
Cosmos 1782 Rocket 3.6 22:07:06 10° N 22:11:25 65° ENE 22:13:29 29° SSE
BREEZE-M DEB (TANK) 3.4 22:10:48 10° W 22:13:45 87° N 22:22:08 10° E
Okean 1-7 3.5 22:13:22 19° SSW 22:16:16 58° WNW 22:20:33 10° N
Atlas Centaur 2 4.5 22:12:51 10° SW 22:16:48 15° SSW 22:16:48 15° SSW
Cosmos 1408 2.7 22:22:39 37° ESE 22:22:59 39° E 22:25:49 10° NNE
BlueWalker 3 2.9 22:24:27 28° ESE 22:24:27 28° ESE 22:27:09 10° E
Cosmos 1242 Rocket 1.9 22:23:20 50° SW 22:23:54 70° WNW 22:26:40 10° N
BREEZE-M DEB (TANK) 3.0 22:19:54 10° W 22:23:54 41° N 22:25:58 10° ENE
MINOTAUR 4 R/B 3.8 22:22:23 10° N 22:25:17 61° WNW 22:26:10 37° SW
Cosmos 405 Rocket 4.4 22:25:01 10° NNE 22:28:09 24° ENE 22:29:56 17° ESE
Cosmos 1570 Rocket 4.1 22:26:18 10° NNW 22:31:39 72° WSW 22:34:28 28° S
Cosmos 1300 Rocket 3.4 22:27:43 10° N 22:32:03 87° E 22:33:55 33° S
Cosmos 2237 Rocket 3.0 22:27:16 10° NNW 22:32:43 45° NE 22:37:15 14° ESE
USA 281 3.6 22:28:55 23° S 22:32:56 51° WSW 22:39:21 10° NW
Meteor 1-24 Rocket 4.5 22:30:01 24° SE 22:32:58 40° E 22:38:13 10° NNE
Cosmos 2322 3.7 22:27:23 10° NNW 22:33:04 72° WSW 22:36:09 28° SSE
Cosmos 1238 4.4 22:29:58 10° NNW 22:33:04 73° W 22:34:07 41° S
H-2A R/B 3.6 22:30:48 10° NE 22:34:06 22° E 22:35:22 19° ESE
ALOS 2 2.6 22:32:43 31° SSE 22:34:47 76° ENE 22:39:11 10° N
Cosmos 371 Rocket 3.9 22:38:27 29° SSE 22:40:12 40° ESE 22:44:43 10° NE
CZ-3 Stage 3 4.5 22:15:41 10° W 22:40:26 30° SW 22:45:18 22° S
Cosmos 2227 Rocket 3.9 22:38:35 15° ESE 22:40:33 17° E 22:44:08 10° ENE
CZ-4C R/B 2.6 22:42:24 29° SSE 22:43:37 33° ESE 22:48:28 10° NE
BREEZE-M DEB (TANK) 3.4 22:45:04 40° SE 22:45:04 40° SE 22:49:16 10° ENE
Cosmos 1703 3.5 22:44:41 37° SE 22:45:40 49° E 22:49:15 10° NNE
Cosmos 1980 4.2 22:40:04 10° NNW 22:45:41 57° ENE 22:49:45 19° SE
Cosmos 1709 Rocket 4.0 22:45:07 26° S 22:48:57 80° E 22:55:20 10° NNE
Cosmos 2322 Rocket 4.4 22:48:21 10° WNW 22:51:05 14° W 22:53:49 10° SW
Spot 4 4.1 22:49:10 29° SSW 22:51:25 57° W 22:56:10 10° NNW
NOSS 0 Rocket 3.9 22:48:40 10° NNW 22:54:57 85° WSW 22:58:44 26° SSE
Cosmos 158 Rocket 4.1 22:50:29 10° NNW 22:55:45 64° WSW 22:58:13 31° S
Sich 1 Rocket 4.4 22:54:58 10° N 22:59:10 41° ENE 23:01:19 24° SE
Cosmos 2242 Rocket 3.6 22:57:30 32° SSW 22:59:35 83° W 23:04:12 10° N
Cosmos 2297 Rocket 2.7 22:57:55 28° SSE 23:00:20 44° ESE 23:05:40 10° NE
EXPRESS MD2 3.9 22:58:40 10° W 22:59:34 21° W 22:59:34 21° W
Meteor 2-5 Rocket 3.9 22:57:47 28° S 23:00:56 66° E 23:06:46 10° NNE
Cosmos 1455 4.2 22:59:47 10° NW 23:01:56 16° W 23:03:18 13° WSW
Cosmos 2208 Rocket 4.4 22:58:35 10° NNW 23:03:37 51° WSW 23:05:55 30° SSW
GEOS 3 Rocket 4.3 22:59:48 10° NE 23:04:34 36° ESE 23:06:13 29° SSE
USA 234 4.3 22:58:45 10° ENE 23:04:58 48° N 23:11:11 10° W
Cosmos 1892 3.7 23:06:43 26° ESE 23:07:30 28° E 23:10:34 10° NNE
SL-4 R/B 1.9 23:03:47 10° WNW 23:07:51 86° SSW 23:12:03 11° ESE
Cosmos 773 Rocket 3.9 23:02:43 10° NNW 23:07:53 88° WSW 23:10:31 30° SSE
COSMOS 2428 3.2 23:07:47 10° NW 23:13:11 45° WSW 23:15:45 28° SSW
Cosmos 2098 Rocket 4.1 23:08:03 10° N 23:14:40 88° W 23:18:27 27° S
CENTAUR R/B 3.7 23:12:45 19° SE 23:14:49 24° ESE 23:19:53 10° ENE
COSMOS 2455 2.8 23:12:15 25° SSW 23:15:53 76° ESE 23:21:57 10° NE
NOSS 8 (H) 4.2 23:15:28 46° SSW 23:16:22 74° SE 23:19:24 10° NE
ATLAS CENTAUR R/B 3.9 23:14:50 10° WNW 23:17:18 17° NNW 23:19:50 10° NNE
Cosmos 1503 Rocket 4.1 23:15:43 31° S 23:18:16 67° ESE 23:23:33 10° NNE
Cosmos 2219 Rocket 3.9 23:14:39 10° NW 23:18:43 21° W 23:21:08 16° SW
Cosmos 1777 Rocket 4.2 23:18:39 31° S 23:21:03 59° ESE 23:26:15 10° NNE
SJ 16-02 3.9 23:18:35 10° W 23:21:26 17° NW 23:24:18 10° N
PSLV R/B 3.6 23:27:03 10° N 23:31:18 71° WNW 23:33:07 33° SSW
Cosmos 332 Rocket 4.3 23:31:18 30° SSE 23:33:16 47° ESE 23:37:58 10° NNE
Cosmos 304 Rocket 3.7 23:31:07 30° SSW 23:33:27 83° WNW 23:38:15 10° NNE
Cosmos 2263 Rocket 4.0 23:33:49 14° SE 23:36:26 18° E 23:40:09 10° ENE
Cosmos 1174 4.1 23:32:25 10° NW 23:37:35 85° NE 23:39:54 26° SE
Okean 1 Rocket 3.2 23:36:43 10° N 23:41:04 69° E 23:43:06 30° SSE
Cosmos 2181 Rocket 4.1 23:40:01 10° NNW 23:46:10 64° W 23:49:34 27° SSW
Cosmos 1825 1.8 23:47:12 48° S 23:48:03 81° E 23:51:29 10° NNE
Helios 1A Rocket 4.1 23:46:37 16° SE 23:49:04 33° ENE 23:52:31 10° N
